[[{"header":{"parameterUnit":"m.s-1","parameterCategory":1,"la1":30.2991,"la2":30.254,"lo1":-89.0895,"lo2":-89.0444,"dy":0.0017,"dx":0.0017,"nx":28,"ny":28,"refTime":"2024-03-08T09:00:00:Z","depth":0,"parameterNumber":2,"parameterNumberName":"U-component_of_WINDS"},"data":[0,0,0,0,0,0,0,0,0,0,0,0,0,0,0,0,0,0,0,0,0,0,0,0,0,0,0,0,0,0,0,0,0,0,0,0,0,0,0,0,0,0,0,0,0,0,0,0,0,0,0,0,0,0,0,0,0,0,-4.2626,-4.2628,0,-4.2824,-4.2826,-4.2828,-4.2905,-4.2905,-4.2904,-4.2904,-4.3103,-4.3109,-4.3114,0,0,0,0,0,0,0,0,0,0,0,0,0,-4.2312,-4.2317,-4.2626,-4.2628,-4.2631,-4.2823,-4.2826,-4.2829,-4.2905,-4.2905,-4.2904,-4.2903,-4.3101,-4.3108,-4.3115,0,0,0,0,0,0,0,0,0,0,0,0,0,-4.2472,-4.2319,-4.2625,-4.2692,-4.27,-4.2823,-4.2826,-4.283,-4.2905,-4.2905,-4.2904,-4.2903,-4.3099,-4.3107,-4.3116,-4.3186,0,0,-4.3143,-4.3146,0,0,0,0,0,0,0,0,-4.2463,-4.2484,-4.268,-4.2688,-4.2697,-4.2839,-4.2789,-4.2949,-4.2906,-4.2827,-4.2904,-4.2903,-4.3016,-4.3031,-4.307,-4.3195,-4.3204,-4.3143,-4.3149,-4.3152,-4.3155,0,0,0,0,0,0,0,-4.2452,-4.2476,-4.2704,-4.2683,-4.2693,-4.2711,-4.2733,-4.2819,-4.2923,-4.2834,-4.284,-4.2863,-4.302,-4.3061,-4.3075,-4.3207,-4.3143,-4.3151,-4.3156,-4.316,-4.3399,-4.34,0,0,0,0,0,0,-4.243,-4.2466,-4.2698,-4.271,-4.2576,-4.2718,-4.2742,-4.2794,-4.2923,-4.2942,-4.2863,-4.2866,-4.3047,-4.3065,-4.3082,-4.3173,-4.3152,-4.316,-4.3165,-4.3398,-4.3399,-4.3401,0,0,0,0,0,0,-4.2423,-4.245,-4.269,-4.259,-4.2622,-4.2724,-4.2782,-4.2799,-4.284,-4.2945,-4.2963,-4.2886,-4.3047,-4.307,-4.316,-4.3181,-4.3164,-4.3172,-4.3397,-4.3398,-4.34,-4.3353,0,0,0,0,0,0,-4.2414,-4.2447,-4.2475,-4.259,-4.2627,-4.2764,-4.2783,-4.2803,-4.2855,-4.286,-4.2971,-4.2989,-4.3048,-4.3146,-4.3168,-4.3192,-4.3179,-4.3395,-4.3397,-4.3399,-4.3353,-4.3353,-4.3353,0,0,0,0,0,-4.2402,-4.2454,-4.2476,-4.2504,-4.2664,-4.2765,-4.2786,-4.2854,-4.2856,-4.2885,-4.2953,-4.2986,-4.3175,-4.3155,-4.318,-4.3207,-4.3394,-4.3397,-4.3399,-4.3354,-4.3353,-4.3353,0,0,0,0,0,0,-4.2337,-4.247,-4.2496,-4.2586,-4.2664,-4.2778,-4.2816,-4.2852,-4.293,-4.2931,-4.3011,-4.3035,-4.3118,-4.3172,-4.3147,-4.3282,-4.3287,-4.3295,-4.3243,-4.3244,-4.3244,-4.3229,-4.3186,0,0,0,0,0,-4.2334,-4.2406,-4.2517,-4.2586,-4.2624,-4.2713,-4.276,-4.2805,-4.2889,-4.2922,-4.2996,-4.3074,-4.3152,-4.3201,-4.3278,-4.3362,-4.3387,-4.3393,-4.3393,-4.3392,-4.3398,-4.3446,-4.345,-4.3409,-4.3409,-4.3409,0,0,-4.2326,-4.2408,-4.2448,-4.2575,-4.264,-4.2712,-4.274,-4.2815,-4.2869,-4.2933,-4.3022,-4.3079,-4.3172,-4.3259,-4.3301,-4.3307,-4.3415,-4.3395,-4.3394,-4.34,-4.3449,-4.3453,-4.3456,-4.3411,-4.341,-4.341,0,0,-4.235,-4.2419,-4.2484,-4.2549,-4.2649,-4.2708,-4.2723,-4.2833,-4.2874,-4.2965,-4.3014,-4.3079,-4.3211,-4.3275,-4.3325,-4.3374,-4.3407,-4.3397,-4.3395,-4.3441,-4.3445,-4.3448,-4.3465,-4.347,-4.3402,-4.3402,-4.3402,0,-4.2328,-4.2439,-4.2512,-4.2585,-4.2639,-4.2701,-4.2767,-4.2827,-4.2946,-4.2981,-4.2986,-4.3153,-4.322,-4.3323,-4.3335,-4.3373,-4.3393,-4.3384,-4.3438,-4.3442,-4.3446,-4.3463,-4.347,-4.34,-4.34,-4.34,-4.3401,0,-4.2407,-4.2484,-4.2524,-4.2639,-4.2697,-4.2766,-4.2848,-4.2899,-4.294,-4.2998,-4.309,-4.3173,-4.3268,-4.3296,-4.3336,-4.3405,-4.3405,-4.3423,-4.343,-4.3447,-4.3464,-4.3472,-4.3397,-4.3398,-4.3398,-4.3399,0,0,-4.2395,-4.2549,-4.2563,-4.2616,-4.273,-4.279,-4.2862,-4.2956,-4.2997,-4.3077,-4.3139,-4.3249,-4.3267,-4.3324,-4.3372,-4.3412,-4.3445,-4.3425,-4.3429,-4.3426,-4.3526,-4.3511,-4.3517,-4.3468,-4.347,-4.3471,-4.3518,0,-4.2433,-4.2564,-4.2632,-4.2734,-4.2806,-4.2866,-4.2928,-4.3005,-4.3062,-4.313,-4.3192,-4.3269,-4.3287,-4.3322,-4.3364,-4.3432,-4.3466,-4.3429,-4.3525,-4.3528,-4.3499,-4.3526,-4.3511,-4.3551,-4.3525,-4.3526,-4.3527,0,-4.2495,-4.2576,-4.2685,-4.2792,-4.2824,-4.2879,-4.2971,-4.3036,-4.3123,-4.3162,-4.3226,-4.3273,-4.335,-4.3351,-4.3458,-4.3432,-4.3475,-4.3514,-4.3517,-4.3528,-4.3528,-4.3537,-4.3566,-4.3571,-4.3538,-4.3538,-4.3537,0,-4.2474,-4.261,-4.2693,-4.2737,-4.2863,-4.29,-4.2955,-4.3042,-4.3094,-4.3174,-4.3209,-4.3296,-4.3344,-4.341,-4.348,-4.3474,-4.3579,-4.3587,-4.3613,-4.3611,-4.3631,-4.3629,-4.3666,-4.366,-4.366,-4.366,-4.366,0,-4.251,-4.2574,-4.2686,-4.2736,-4.281,-4.2888,-4.2958,-4.3017,-4.3094,-4.3157,-4.3215,-4.3273,-4.3361,-4.343,-4.3484,-4.3564,-4.3585,-4.3618,-4.3632,-4.3613,-4.3608,-4.3642,-4.364,-4.3662,-4.3661,-4.3661,-4.3661,0,-4.2498,-4.2576,-4.267,-4.2783,-4.2813,-4.2862,-4.2958,-4.301,-4.307,-4.3149,-4.3172,-4.3266,-4.3349,-4.3426,-4.3536,-4.3573,-4.3654,-4.3672,-4.3625,-4.3632,-4.3653,-4.365,-4.3713,-4.3725,-4.371,-4.371,-4.371,0,-4.2515,-4.2567,-4.2685,-4.2732,-4.2786,-4.286,-4.2914,-4.2992,-4.3046,-4.315,-4.3189,-4.3277,-4.3352,-4.3483,-4.356,-4.3645,-4.3665,-4.3681,-4.3678,-4.3658,-4.3665,-4.3661,-4.3666,-4.368,-4.368,-4.368,-4.3679,0,-4.2538,-4.2574,-4.265,-4.2739,-4.2803,-4.2877,-4.2952,-4.2987,-4.3079,-4.3137,-4.3224,-4.3281,-4.3395,-4.3482,-4.3576,-4.3631,-4.3671,-4.368,-4.3691,-4.3671,-4.3642,-4.3658,-4.3622,-4.3678,-4.3678,-4.3678,-4.3678,-4.3678,-4.2541,-4.259,-4.2681,-4.2763,-4.2829,-4.2899,-4.2953,-4.302,-4.3094,-4.3193,-4.3235,-4.3323,-4.341,-4.354,-4.3596,-4.3665,-4.3673,-4.3688,-4.3692,-4.3694,-4.369,-4.3631,-4.3683,-4.3683,-4.3683,-4.3683,-4.3683,0,-4.2566,-4.2628,-4.2703,-4.2808,-4.2873,-4.2906,-4.2991,-4.3043,-4.312,-4.3199,-4.3271,-4.3371,-4.3455,-4.354,-4.3629,-4.3668,-4.3689,-4.3689,-4.3687,-4.3699,-4.3679,-4.366,-4.3671,-4.3671,-4.3671,-4.3671,-4.3671,-4.3671,-4.2586,-4.267,-4.2717,-4.2833,-4.2894,-4.2982,-4.3028,-4.3092,-4.3155,-4.3264,-4.3335,-4.339,-4.3471,-4.3566,-4.3645,-4.3668,-4.3698,-4.3693,-4.372,-4.37,-4.37,-4.37,-4.3684,-4.3699,-4.3699,-4.3735,-4.3735,-4.3735]},{"header":{"parameterUnit":"m.s-1","parameterCategory":1,"la1":30.2991,"la2":30.254,"lo1":-89.0895,"lo2":-89.0444,"dy":0.0017,"dx":0.0017,"nx":28,"ny":28,"refTime":"2024-03-08T09:00:00:Z","depth":0,"parameterNumber":3,"parameterNumberName":"V-component_of_WINDS"},"data":[0,0,0,0,0,0,0,0,0,0,0,0,0,0,0,0,0,0,0,0,0,0,0,0,0,0,0,0,0,0,0,0,0,0,0,0,0,0,0,0,0,0,0,0,0,0,0,0,0,0,0,0,0,0,0,0,0,0,4.4065,4.4066,0,4.4194,4.4195,4.4197,4.4203,4.4202,4.42,4.4199,4.4326,4.433,4.4335,0,0,0,0,0,0,0,0,0,0,0,0,0,4.3822,4.3826,4.4065,4.4066,4.4068,4.4193,4.4195,4.4197,4.4203,4.4201,4.42,4.4198,4.4324,4.433,4.4336,0,0,0,0,0,0,0,0,0,0,0,0,0,4.3936,4.3827,4.4064,4.4086,4.409,4.4193,4.4195,4.4197,4.4204,4.4201,4.4199,4.4197,4.4322,4.4329,4.4336,4.4425,0,0,4.4358,4.4361,0,0,0,0,0,0,0,0,4.393,4.3945,4.4081,4.4085,4.4089,4.418,4.4156,4.4274,4.4204,4.416,4.4199,4.4196,4.4279,4.4289,4.4318,4.4431,4.4437,4.4359,4.4363,4.4366,4.4368,0,0,0,0,0,0,0,4.3922,4.394,4.4115,4.4083,4.4088,4.4089,4.4103,4.4178,4.423,4.4164,4.4165,4.418,4.428,4.4311,4.4321,4.4439,4.4359,4.4365,4.4369,4.4372,4.4635,4.4637,0,0,0,0,0,0,4.391,4.3933,4.4111,4.4119,4.4002,4.4095,4.4111,4.4153,4.423,4.4239,4.4182,4.418,4.43,4.4313,4.4326,4.4438,4.4366,4.4373,4.4377,4.4632,4.4635,4.4638,0,0,0,0,0,0,4.3905,4.3926,4.4106,4.4027,4.405,4.4102,4.4149,4.4157,4.4188,4.4243,4.4252,4.4204,4.4299,4.4316,4.4402,4.4442,4.4376,4.4383,4.4629,4.4633,4.4637,4.4661,0,0,0,0,0,0,4.3898,4.3924,4.3959,4.4027,4.4054,4.4181,4.4152,4.4161,4.4201,4.4199,4.4267,4.4276,4.4299,4.4391,4.4409,4.4451,4.4388,4.4626,4.4631,4.4636,4.4657,4.4666,4.4673,0,0,0,0,0,4.3889,4.3958,4.396,4.3982,4.4099,4.4183,4.4198,4.4225,4.4204,4.4239,4.4276,4.4273,4.4435,4.44,4.442,4.4465,4.4623,4.4629,4.4635,4.4653,4.4664,4.4673,0,0,0,0,0,0,4.3891,4.3968,4.3971,4.4064,4.4118,4.4184,4.4229,4.4234,4.4293,4.4289,4.4318,4.4333,4.4419,4.445,4.441,4.4557,4.4527,4.4537,4.4534,4.4544,4.4552,4.4543,4.4394,0,0,0,0,0,4.3902,4.3966,4.4029,4.4106,4.4132,4.4176,4.4214,4.423,4.4286,4.4308,4.435,4.4402,4.4466,4.4506,4.4567,4.4661,4.4677,4.4702,4.471,4.4716,4.4725,4.4781,4.4794,4.4658,4.4658,4.4658,0,0,4.3926,4.3976,4.4014,4.4107,4.415,4.4215,4.4195,4.4263,4.4312,4.4317,4.4403,4.4436,4.4496,4.4588,4.463,4.4617,4.4766,4.4724,4.4729,4.4734,4.4788,4.4801,4.4813,4.4662,4.4661,4.4661,0,0,4.4004,4.4047,4.4118,4.4162,4.4229,4.4258,4.4275,4.4342,4.4365,4.4451,4.4458,4.4515,4.4622,4.4666,4.4702,4.48,4.4802,4.4819,4.4861,4.4915,4.4925,4.4935,4.4973,4.4986,4.4827,4.4828,4.4828,0,4.4025,4.4124,4.4152,4.4223,4.4265,4.4275,4.4347,4.4388,4.447,4.4499,4.4482,4.462,4.4661,4.4765,4.479,4.4817,4.4839,4.4812,4.4922,4.4932,4.4941,4.4977,4.4991,4.4829,4.4829,4.4829,4.4829,0,4.4148,4.4217,4.4266,4.4348,4.4395,4.4466,4.4505,4.4549,4.4562,4.4593,4.4682,4.4732,4.4805,4.4831,4.4842,4.4937,4.4927,4.4916,4.4886,4.4956,4.499,4.5004,4.4832,4.4831,4.4831,4.483,0,0,4.4229,4.4329,4.4347,4.4386,4.4462,4.4515,4.4586,4.466,4.4699,4.4755,4.4817,4.4909,4.4901,4.4942,4.4958,4.5005,4.5084,4.4989,4.4991,4.5007,4.5195,4.5205,4.522,4.5085,4.5087,4.5089,4.5191,0,4.4317,4.4447,4.4476,4.4588,4.4654,4.4665,4.4728,4.4781,4.4813,4.4872,4.4906,4.4972,4.4954,4.498,4.5027,4.5064,4.5122,4.5057,4.5143,4.5146,4.513,4.5238,4.5248,4.5341,4.5204,4.5206,4.5208,0,4.4437,4.45,4.4619,4.469,4.4718,4.4774,4.4846,4.4902,4.4963,4.4983,4.5031,4.5044,4.5119,4.5085,4.519,4.5146,4.5182,4.5206,4.521,4.5221,4.5182,4.5253,4.5371,4.5386,4.5229,4.5227,4.5226,0,4.4488,4.4602,4.4689,4.4722,4.4805,4.4845,4.4881,4.494,4.4984,4.5046,4.5075,4.5143,4.5181,4.5234,4.5265,4.5237,4.5369,4.5337,4.5388,4.5388,4.5417,4.5415,4.5544,4.5436,4.5436,4.5436,4.5436,0,4.4584,4.4657,4.4714,4.4768,4.4851,4.4883,4.4964,4.5,4.5053,4.5114,4.5127,4.5183,4.522,4.5282,4.5307,4.5392,4.5408,4.5426,4.5432,4.5427,4.5425,4.5452,4.5448,4.544,4.5439,4.5438,4.5438,0,4.4656,4.4696,4.4793,4.4865,4.4885,4.4943,4.5005,4.5058,4.509,4.5167,4.5187,4.5238,4.5312,4.5348,4.5439,4.5455,4.5553,4.5553,4.5533,4.5536,4.5587,4.5582,4.574,4.5763,4.5638,4.5639,4.564,0,4.4716,4.4773,4.4853,4.4896,4.4934,4.5002,4.5048,4.5083,4.513,4.5205,4.5249,4.5325,4.5387,4.5504,4.5549,4.5619,4.5623,4.5673,4.5633,4.5627,4.5627,4.5624,4.5632,4.5681,4.5682,4.5683,4.5684,0,4.4819,4.4837,4.4904,4.4978,4.5033,4.5093,4.5151,4.5185,4.5229,4.5281,4.5359,4.5407,4.5502,4.5578,4.5652,4.5688,4.5694,4.5696,4.5712,4.5708,4.5696,4.5706,4.5555,4.5692,4.5692,4.5691,4.569,4.569,4.4889,4.4942,4.5007,4.5082,4.513,4.5185,4.524,4.5281,4.5347,4.5429,4.5444,4.5527,4.5589,4.5689,4.5728,4.5793,4.5782,4.5805,4.5811,4.5817,4.5821,4.5684,4.5806,4.5806,4.5806,4.5806,4.5806,0,4.4995,4.5039,4.5107,4.5191,4.525,4.5252,4.5318,4.5367,4.544,4.5498,4.556,4.5651,4.5724,4.5775,4.585,4.5893,4.5898,4.5911,4.591,4.5919,4.5825,4.5805,4.5906,4.5906,4.5906,4.5906,4.5906,4.5906,4.5058,4.5149,4.5175,4.5291,4.5334,4.5417,4.5455,4.5506,4.5553,4.5655,4.5717,4.5751,4.5806,4.5886,4.5954,4.5967,4.5995,4.601,4.6023,4.5935,4.5925,4.5915,4.5896,4.6015,4.6015,4.6111,4.6112,4.6113]}]]